London, United Kingdom

5:56 PM BST on May 24, 2017 (GMT +0100)
Heathrow

Weather History for EGLL - March, 2014

Change the Weather History Date:

Wednesday, March 19, 2014

  Actual Average Record
Temperature  
Mean Temperature 52 °F -  
Max Temperature 61 °F 54 °F 68 °F (2005)
Min Temperature 44 °F 40 °F 28 °F (2011)
Degree Days  
Heating Degree Days 12    
Growing Degree Days 2 (Base 50)    
Moisture  
Dew Point 41 °F    
Average Humidity 68    
Maximum Humidity 93    
Minimum Humidity 35    
Precipitation  
Precipitation 0.00 in - - ()
Sea Level Pressure  
Sea Level Pressure 30.18 in    
Wind  
Wind Speed 11 mph ()    
Max Wind Speed 16 mph    
Max Gust Speed -    
Visibility 11.3 miles    
Events      
Averages and records for this station are not official NWS values.
T = Trace of Precipitation, MM = Missing Value Source: Averaged Metar Reports

Daily Weather History Graph

Daily Weather History Graph

Search for Another Location

Airport or City:

Trip Planner

Search our weather history database for the weather conditions in past years. The results will help you decide how hot, cold, wet, or windy it might be!

Date:

Astronomy

Mar. 19, 2014 Rise Set
Actual Time 6:07 AM GMT 6:12 PM GMT
Civil Twilight 5:33 AM GMT 6:46 PM GMT
Nautical Twilight 4:54 AM GMT 7:25 PM GMT
Astronomical Twilight 4:14 AM GMT 8:06 PM GMT
Moon 9:40 PM GMT (3/19) 7:03 AM GMT (3/19)
Length of Visible Light 13h 12m
Length of Day
12h 05m
Waning Gibbous, 92% of the Moon is Illuminated
Mar 19
Waning Gibbous
Mar 24
Last Quarter
Mar 30
New
Apr 7
First Quarter
Apr 15
Full

Hourly Weather History & Observations

Time (GMT) Temp. Windchill Dew Point Humidity Pressure Visibility Wind Dir Wind Speed Gust Speed Precip Events Conditions
12:00 AM 48 °F - 41 °F 70% 30.17 in 19 mi West 11.5 mph - -  
12:20 AM 48.2 °F - 42.8 °F 82% 30.18 in - West 10.4 mph - N/A   Clear
12:50 AM 48.2 °F - 42.8 °F 82% 30.18 in - West 11.5 mph - N/A   Clear
1:00 AM 47 °F - 41 °F 72% 30.19 in 17 mi West 11.5 mph - -  
1:20 AM 48.2 °F - 41.0 °F 76% 30.18 in 6.2 mi West 13.8 mph - N/A   Unknown
1:50 AM 48.2 °F - 41.0 °F 76% 30.18 in 6.2 mi West 12.7 mph - N/A   Unknown
2:00 AM 47 °F - 40 °F 71% 30.20 in 17 mi WSW 12.7 mph - -   Mostly Cloudy
2:20 AM 48.2 °F - 41.0 °F 76% 30.21 in 6.2 mi West 12.7 mph - N/A   Unknown
2:50 AM 48.2 °F - 41.0 °F 76% 30.21 in - West 10.4 mph - N/A   Clear
3:00 AM 46 °F - 40 °F 74% 30.20 in 17 mi West 11.5 mph - -   Mostly Cloudy
3:20 AM 48.2 °F - 41.0 °F 76% 30.18 in - West 9.2 mph - N/A   Clear
3:50 AM 48.2 °F - 41.0 °F 76% 30.21 in - West 8.1 mph - N/A   Clear
4:00 AM 46 °F - 40 °F 73% 30.21 in 16 mi West 9.2 mph - -   Mostly Cloudy
4:20 AM 48.2 °F - 41.0 °F 76% 30.21 in - WSW 9.2 mph - N/A   Clear
4:50 AM 48.2 °F - 41.0 °F 76% 30.18 in - WSW 9.2 mph - N/A   Clear
5:00 AM 46 °F - 40 °F 71% 30.20 in 18 mi SW 8.1 mph - -   Scattered Clouds
5:20 AM 48.2 °F - 41.0 °F 76% 30.21 in - WSW 12.7 mph - N/A   Clear
5:50 AM 46.4 °F 41.5 °F 41.0 °F 81% 30.21 in - WSW 10.4 mph - N/A   Clear
6:00 AM 46 °F - 39 °F 69% 30.21 in 15 mi WSW 10.4 mph - -  
6:20 AM 46.4 °F 41.5 °F 41.0 °F 81% 30.21 in - WSW 10.4 mph - N/A   Clear
6:50 AM 46.4 °F 41.9 °F 41.0 °F 81% 30.21 in - WSW 9.2 mph - N/A   Clear
7:00 AM 47 °F - 39 °F 67% 30.22 in 14 mi SW 9.2 mph - -   Scattered Clouds
7:20 AM 46.4 °F 42.9 °F 41.0 °F 81% 30.21 in - SSW 6.9 mph - N/A   Clear
7:50 AM 48.2 °F - 41.0 °F 76% 30.21 in - WSW 9.2 mph - N/A   Clear
8:00 AM 48 °F - 40 °F 64% 30.22 in 14 mi SW 9.2 mph - -  
8:20 AM 48.2 °F - 41.0 °F 76% 30.21 in - SW 9.2 mph - N/A   Clear
8:50 AM 50.0 °F - 41.0 °F 71% 30.21 in - WSW 9.2 mph - N/A   Clear
9:00 AM 49 °F - 40 °F 61% 30.24 in 14 mi WSW 9.2 mph - -  
9:20 AM 50.0 °F - 41.0 °F 71% 30.24 in - WSW 10.4 mph - N/A   Clear
9:50 AM 51.8 °F - 41.0 °F 67% 30.24 in - WSW 10.4 mph - N/A   Clear
10:00 AM 51 °F - 39 °F 53% 30.23 in 18 mi WSW 8.1 mph - -  
10:20 AM 51.8 °F - 41.0 °F 67% 30.21 in - WSW 11.5 mph - N/A   Clear
10:50 AM 53.6 °F - 39.2 °F 58% 30.21 in - WSW 13.8 mph - N/A   Clear
11:00 AM 53 °F - 40 °F 50% 30.22 in 17 mi WSW 11.5 mph - -   Scattered Clouds
11:20 AM 55.4 °F - 39.2 °F 54% 30.21 in - West 11.5 mph - N/A   Clear
11:50 AM 55.4 °F - 39.2 °F 54% 30.21 in - WSW 12.7 mph - N/A   Clear
12:00 PM 55 °F - 39 °F 44% 30.21 in 17 mi WSW 10.4 mph - -  
12:20 PM 57.2 °F - 39.2 °F 51% 30.21 in - West 11.5 mph - N/A   Clear
12:50 PM 57.2 °F - 41.0 °F 55% 30.21 in - WSW 13.8 mph - N/A   Clear
1:00 PM 56 °F - 40 °F 45% 30.21 in 18 mi WSW 12.7 mph - -  
1:20 PM 59.0 °F - 42.8 °F 55% 30.21 in - West 12.7 mph - N/A   Clear
1:50 PM 60.8 °F - 41.0 °F 48% 30.18 in - WSW 11.5 mph - N/A   Clear
2:00 PM 60 °F - 42 °F 40% 30.19 in 19 mi WSW 13.8 mph - -  
2:20 PM 60.8 °F - 41.0 °F 48% 30.18 in - West 13.8 mph - N/A   Clear
2:50 PM 60.8 °F - 39.2 °F 45% 30.18 in - WSW 15.0 mph - N/A   Clear
3:00 PM 60 °F - 42 °F 39% 30.18 in 22 mi WSW 15.0 mph - -  
3:20 PM 60.8 °F - 41.0 °F 48% 30.18 in - West 13.8 mph - N/A   Clear
3:50 PM 60.8 °F - 41.0 °F 48% 30.15 in - WSW 16.1 mph - N/A   Clear
4:00 PM 61 °F - 40 °F 35% 30.16 in 22 mi WSW 16.1 mph - -  
4:20 PM 62.6 °F - 42.8 °F 48% 30.15 in - SW 13.8 mph - N/A   Clear
4:50 PM 60.8 °F - 42.8 °F 52% 30.15 in - SW 12.7 mph - N/A   Clear
5:20 PM 60.8 °F - 44.6 °F 55% 30.15 in - SW 13.8 mph - N/A   Clear
5:50 PM 57.2 °F - 44.6 °F 63% 30.15 in - SW 13.8 mph - N/A   Clear
6:00 PM 56 °F - 45 °F 56% 30.15 in 11 mi SSW 15.0 mph - -  
6:20 PM 53.6 °F - 44.6 °F 72% 30.15 in - SSW 11.5 mph - N/A   Clear
6:50 PM 51.8 °F - 44.6 °F 76% 30.15 in - SW 12.7 mph - N/A   Clear
7:00 PM 52 °F - 44 °F 65% 30.16 in 9 mi SSW 15.0 mph - -  
7:20 PM 48.2 °F - 44.6 °F 87% 30.15 in - SSW 12.7 mph - N/A   Clear
7:50 PM 48.2 °F - 42.8 °F 82% 30.15 in 5.6 mi SW 12.7 mph - N/A   Partly Cloudy
8:00 PM 48 °F - 42 °F 74% 30.18 in 8 mi SSW 10.4 mph - -  
8:20 PM 46.4 °F 41.5 °F 42.8 °F 87% 30.15 in 5.6 mi SSW 10.4 mph - N/A   Partly Cloudy
8:50 PM 46.4 °F 41.5 °F 42.8 °F 87% 30.15 in 5.6 mi SSW 10.4 mph - N/A   Partly Cloudy
9:00 PM 46 °F - 42 °F 80% 30.17 in 8 mi SSW 9.2 mph - -   Scattered Clouds
9:20 PM 46.4 °F 41.1 °F 42.8 °F 87% 30.15 in 5.6 mi SSW 11.5 mph - N/A   Partly Cloudy
9:50 PM 44.6 °F 39.2 °F 41.0 °F 87% 30.15 in 5.6 mi SW 10.4 mph - N/A   Scattered Clouds
10:00 PM 46 °F - 41 °F 77% 30.15 in 9 mi SSW 10.4 mph - -  
10:20 PM 44.6 °F 39.7 °F 41.0 °F 87% 30.12 in 5.6 mi SSW 9.2 mph - N/A   Partly Cloudy
10:50 PM 44.6 °F 39.2 °F 41.0 °F 87% 30.09 in 5.6 mi SSW 10.4 mph - N/A   Partly Cloudy
11:00 PM 45 °F - 41 °F 79% 30.12 in 9 mi SSW 11.5 mph - -  
11:20 PM 44.6 °F 39.2 °F 41.0 °F 87% 30.09 in 5.6 mi SSW 10.4 mph - N/A   Mostly Cloudy
11:50 PM 44.6 °F 39.7 °F 42.8 °F 93% 30.09 in 5.0 mi SSW 9.2 mph - N/A   Mostly Cloudy